Date String (YYYY-MM-DD hh:mm:ss) UTC,Instrument flags,absolute air pressure of the measurement (hPa),sample flow rate (lpm),inlet stack bypass flow (lpm),air temperature of the measurement (°C),ambient temperature measured by the external sensor (°C),aerosol sample conditioner tube jacket temperature (°C),OPC LED temperature (°C),internal box temperature (°C),relative humidity of the measurement (%),span deviation,mass concentration of particles derived from Lorenz-Mie calculation of OPC scattering (μg/m³),mass concentration of particles derived from Lorenz-Mie calculation of OPC scattering (μg/m³),mass concentration of particles derived from Lorenz-Mie calculation of OPC scattering (μg/m³)
DateTimeUTC,F1_M11,P_M11,Q1_M11,Q2_M11,T1_M11,T2_M11,T3_M11,T4_M11,T5_M11,U1_M11,ZSPAN_M11,X0_M11,X2_M11,X1_M11
2023-11-13 08:00:00,SystemResetWarning,0837.7,5.01,000.00,025.4,024.2,000.0,033.9,026.8,8.1,0000.0,0005.42,0002.86,0002.16
2023-11-13 08:01:00,SystemResetWarning,0837.7,5.01,000.00,025.5,024.3,000.0,033.9,026.9,8.2,0000.0,0005.33,0002.82,0002.16
2023-11-13 08:02:00,SystemResetWarning,0837.6,5.00,000.00,025.5,024.3,000.0,033.9,026.9,8.3,0000.0,0005.29,0002.82,0002.17
2023-11-13 08:03:00,SystemResetWarning,0837.6,4.99,000.00,025.5,024.3,000.0,033.9,026.9,8.3,0000.0,0005.33,0002.81,0002.17
2023-11-13 08:04:00,SystemResetWarning,0837.6,4.99,000.00,025.5,024.3,000.0,033.9,026.9,8.2,0000.0,0005.18,0002.75,0002.15
2023-11-13 08:05:00,SystemResetWarning,0837.6,5.00,000.00,025.5,024.3,000.0,033.9,026.9,8.2,0000.0,0004.97,0002.74,0002.15
2023-11-13 08:06:00,SystemResetWarning,0837.7,5.01,000.00,025.4,024.3,000.0,033.9,026.8,8.2,0000.0,0004.85,0002.72,0002.13
2023-11-13 08:07:00,SystemResetWarning,0837.6,5.01,000.00,025.4,024.3,000.0,033.9,026.8,8.2,0000.0,0004.78,0002.70,0002.13
2023-11-13 08:08:00,SystemResetWarning,0837.7,5.00,000.00,025.4,024.2,000.0,033.8,026.8,8.2,0000.0,0004.89,0002.73,0002.13
2023-11-13 08:09:00,SystemResetWarning,0837.7,4.99,000.00,025.4,024.2,000.0,033.8,026.8,8.2,0000.0,0004.65,0002.74,0002.14
2023-11-13 08:10:00,SystemResetWarning,0837.7,4.99,000.00,025.4,024.2,000.0,033.8,026.8,8.2,0000.0,0004.47,0002.76,0002.14
2023-11-13 08:11:00,SystemResetWarning,0837.7,5.01,000.00,025.4,024.2,000.0,033.8,026.8,8.2,0000.0,0004.54,0002.79,0002.14
2023-11-13 08:12:00,SystemResetWarning,0837.7,5.01,000.00,025.4,024.2,000.0,033.8,026.8,8.2,0000.0,0005.33,0002.76,0002.11
2023-11-13 08:13:00,SystemResetWarning,0837.7,4.99,000.00,025.4,024.2,000.0,033.8,026.8,8.3,0000.0,0006.61,0002.75,0002.10
2023-11-13 08:14:00,SystemResetWarning,0837.6,4.99,000.00,025.4,024.2,000.0,033.8,026.9,8.3,0000.0,0007.29,0002.75,0002.07
2023-11-13 08:15:00,SystemResetWarning,0837.6,5.00,000.00,025.4,024.2,000.0,033.8,026.9,8.3,0000.0,0007.44,0002.82,0002.09
2023-11-13 08:16:00,SystemResetWarning,0837.6,5.01,000.00,025.4,024.2,000.0,033.8,026.8,8.3,0000.0,0007.54,0002.81,0002.09
2023-11-13 08:17:00,SystemResetWarning,0837.6,5.01,000.00,025.3,024.2,000.0,033.8,026.8,8.3,0000.0,0007.97,0002.88,0002.11
2023-11-13 08:18:00,SystemResetWarning,0837.6,5.01,000.00,025.3,024.1,000.0,033.8,026.7,8.4,0000.0,0007.98,0002.90,0002.13
2023-11-13 08:19:00,SystemResetWarning,0837.6,5.00,000.00,025.3,024.1,000.0,033.7,026.7,8.3,0000.0,0007.91,0002.92,0002.13
2023-11-13 08:20:00,SystemResetWarning,0837.6,5.00,000.00,025.3,024.0,000.0,033.7,026.7,8.3,0000.0,0007.98,0002.91,0002.13
2023-11-13 08:21:00,SystemResetWarning,0837.6,5.00,000.00,025.3,024.0,000.0,033.7,026.7,8.4,0000.0,0007.97,0002.91,0002.15
2023-11-13 08:22:00,SystemResetWarning,0837.6,5.00,000.00,025.2,024.0,000.0,033.7,026.6,8.4,0000.0,0008.02,0002.95,0002.17
2023-11-13 08:23:00,SystemResetWarning,0837.6,5.00,000.00,025.2,023.9,000.0,033.7,026.6,8.4,0000.0,0007.76,0003.08,0002.20
2023-11-13 08:24:00,SystemResetWarning,0837.6,5.00,000.00,025.2,023.9,000.0,033.7,026.6,8.4,0000.0,0006.99,0003.12,0002.25
2023-11-13 08:25:00,SystemResetWarning,0837.6,4.99,000.00,025.2,023.9,000.0,033.7,026.5,8.4,0000.0,0006.34,0003.17,0002.30
2023-11-13 08:26:00,SystemResetWarning,0837.6,5.00,000.00,025.2,023.9,000.0,033.6,026.6,8.4,0000.0,0006.53,0003.16,0002.31
2023-11-13 08:27:00,SystemResetWarning,0837.6,5.00,000.00,025.1,023.9,000.0,033.6,026.6,8.4,0000.0,0007.43,0003.17,0002.34
2023-11-13 08:28:00,SystemResetWarning,0837.6,5.00,000.00,025.1,024.0,000.0,033.6,026.6,8.4,0000.0,0007.05,0003.16,0002.35
2023-11-13 08:29:00,SystemResetWarning,0837.6,5.01,000.00,025.1,024.0,000.0,033.6,026.6,8.4,0000.0,0006.97,0003.16,0002.35
2023-11-13 08:30:00,SystemResetWarning,0837.6,5.00,000.00,025.1,024.0,000.0,033.6,026.6,8.4,0000.0,0007.65,0003.18,0002.36
2023-11-13 08:31:00,SystemResetWarning,0837.6,5.01,000.00,025.1,024.0,000.0,033.6,026.6,8.4,0000.0,0007.86,0003.21,0002.37
2023-11-13 08:32:00,SystemResetWarning,0837.5,5.00,000.00,025.1,024.0,000.0,033.6,026.6,8.4,0000.0,0007.98,0003.25,0002.38
2023-11-13 08:33:00,SystemResetWarning,0837.5,5.00,000.00,025.1,024.0,000.0,033.5,026.6,8.3,0000.0,0008.03,0003.26,0002.40
2023-11-13 08:34:00,SystemResetWarning,0837.6,5.00,000.00,025.1,024.0,000.0,033.5,026.5,8.3,0000.0,0008.09,0003.27,0002.41
2023-11-13 08:35:00,SystemResetWarning,0837.5,5.00,000.00,025.1,024.0,000.0,033.5,026.6,8.4,0000.0,0009.05,0003.28,0002.39
2023-11-13 08:36:00,SystemResetWarning,0837.5,5.00,000.00,025.1,024.0,000.0,033.5,026.6,8.5,0000.0,0009.14,0003.27,0002.36
2023-11-13 08:37:00,SystemResetWarning,0837.5,5.00,000.00,025.0,024.0,000.0,033.5,026.6,8.5,0000.0,0009.06,0003.25,0002.35
2023-11-13 08:38:00,SystemResetWarning,0837.5,5.00,000.00,025.0,024.0,000.0,033.5,026.6,8.6,0000.0,0008.29,0003.21,0002.32
2023-11-13 08:39:00,SystemResetWarning,0837.5,5.00,000.00,025.0,024.0,000.0,033.5,026.5,8.6,0000.0,0008.29,0003.20,0002.31
2023-11-13 08:40:00,SystemResetWarning,0837.5,4.99,000.00,025.0,024.0,000.0,033.5,026.5,8.6,0000.0,0008.36,0003.21,0002.31
2023-11-13 08:41:00,SystemResetWarning,0837.5,4.99,000.00,025.0,023.9,000.0,033.5,026.5,8.6,0000.0,0007.80,0003.17,0002.31
2023-11-13 08:42:00,SystemResetWarning,0837.4,5.00,000.00,025.0,023.9,000.0,033.5,026.5,8.6,0000.0,0007.79,0003.16,0002.31
2023-11-13 08:43:00,SystemResetWarning,0837.4,4.99,000.00,025.0,023.9,000.0,033.4,026.4,8.6,0000.0,0008.03,0003.15,0002.31
2023-11-13 08:44:00,SystemResetWarning,0837.4,5.00,000.00,025.0,023.9,000.0,033.4,026.3,8.6,0000.0,0008.27,0003.16,0002.32
2023-11-13 08:45:00,SystemResetWarning,0837.4,5.01,000.00,025.0,023.9,000.0,033.4,026.4,8.6,0000.0,0008.45,0003.13,0002.30
2023-11-13 08:46:00,SystemResetWarning,0837.4,5.00,000.00,024.9,023.9,000.0,033.4,026.3,8.6,0000.0,0007.48,0003.07,0002.30
2023-11-13 08:47:00,SystemResetWarning,0837.4,5.01,000.00,024.9,023.9,000.0,033.4,026.3,8.6,0000.0,0007.57,0003.09,0002.31
2023-11-13 08:48:00,SystemResetWarning,0837.4,5.00,000.00,024.9,023.8,000.0,033.4,026.3,8.6,0000.0,0007.75,0003.13,0002.32
2023-11-13 08:49:00,SystemResetWarning,0837.4,5.00,000.00,024.9,023.8,000.0,033.4,026.3,8.6,0000.0,0007.89,0003.16,0002.35
2023-11-13 08:50:00,SystemResetWarning,0837.4,4.99,000.00,024.9,023.8,000.0,033.4,026.3,8.7,0000.0,0008.18,0003.20,0002.36
2023-11-13 08:51:00,SystemResetWarning,0837.4,4.99,000.00,024.8,023.8,000.0,033.3,026.3,8.7,0000.0,0008.17,0003.18,0002.36
2023-11-13 08:52:00,SystemResetWarning,0837.4,5.00,000.00,024.8,023.8,000.0,033.3,026.3,8.7,0000.0,0008.63,0003.22,0002.36
2023-11-13 08:53:00,SystemResetWarning,0837.4,5.00,000.00,024.8,023.8,000.0,033.3,026.2,8.7,0000.0,0008.77,0003.22,0002.35
2023-11-13 08:54:00,SystemResetWarning,0837.4,5.00,000.00,024.8,023.8,000.0,033.3,026.2,8.7,0000.0,0008.72,0003.17,0002.33
2023-11-13 08:55:00,SystemResetWarning,0837.3,5.01,000.00,024.8,023.7,000.0,033.3,026.2,8.7,0000.0,0008.41,0003.14,0002.33
2023-11-13 08:56:00,SystemResetWarning,0837.4,5.00,000.00,024.8,023.7,000.0,033.3,026.1,8.8,0000.0,0008.05,0003.14,0002.33
2023-11-13 08:57:00,SystemResetWarning,0837.2,5.01,000.00,024.7,023.7,000.0,033.3,026.1,8.8,0000.0,0007.90,0003.13,0002.33
2023-11-13 08:58:00,SystemResetWarning,0837.3,5.00,000.00,024.7,023.7,000.0,033.2,026.2,8.8,0000.0,0007.89,0003.11,0002.31
2023-11-13 08:59:00,SystemResetWarning,0837.3,5.01,000.00,024.7,023.7,000.0,033.2,026.2,8.8,0000.0,0007.95,0003.04,0002.28
